Simultaneous Nadir Overpasses (SNOs) Predictions

Prediction of SNOs between LANDSAT-8 and METOP-A Satellite Orbit:

Table of predicted SNOs for the next 14.0 days since TLE Epoch: 4/15/2016
Index Date (LANDSAT-8) Time (LANDSAT-8) Lat,Lon (LANDSAT-8) SZA (LANDSAT-8 ) Date (METOP-A) Time (METOP-A) Lat,Lon (METOP-A) SZA (METOP-A ) Distance(km) Time Diff (sec)
1 04/16/2016 09:28:26 81.12, 77.31 72.84 04/16/2016 09:27:52 81.12, 77.49 72.84 3.05 34
2 04/16/2016 10:17:52 -81.14,-114.79 107.14 04/16/2016 10:18:32 -81.14,-114.70 107.11 1.42 40
3 04/19/2016 05:02:39 81.12, 143.71 71.87 04/19/2016 05:02:15 81.12, 143.72 71.86 0.36 24
4 04/19/2016 05:52:05 -81.14, -48.36 108.10 04/19/2016 05:52:55 -81.14, -48.46 108.10 1.93 50
5 04/22/2016 00:36:53 81.12,-149.94 70.92 04/22/2016 00:36:39 81.11,-150.07 70.90 2.22 14
6 04/22/2016 01:26:19 -81.14, 18.02 109.05 04/22/2016 01:27:18 -81.14, 18.13 109.01 1.97 59
7 04/24/2016 20:11:06 81.13, -83.28 70.04 04/24/2016 20:11:01 81.13, -83.12 70.05 2.74 5
8 04/24/2016 21:00:32 -81.15, 84.70 109.93 04/24/2016 21:01:41 -81.15, 84.70 109.90 0.61 69
9 04/27/2016 14:55:55 -81.09, 174.94 110.93 04/27/2016 14:54:47 -81.09, 174.85 110.97 1.67 68




NCC Satellite Simultaneous Nadir Overpasses (SNOs) Prediction Service
